THOR ABLESTAR DEB, 1435

Orbit data source: Space-Track

THOR ABLESTAR DEB, 1435 is space debris in LEO originally from a launch on Thu, 24 Jun 1965 UTC launched from the Air Force Western Test Range (AFWTR). Debris objects in space refer to the collection of defunct objects orbiting the Earth. Examples of debris include non-operational satellites, rocket bodies, and fragments generated from explosions, collisions, or faulty payload assembly.

Loading next visibility...
Identifier
1435, 1965-048D
Orbit
LEO
Country
Flag of USUS
Related business
Manufacturer
Unknown
Mission
Spacecraft
Bus & Motor
Unknown
Mass
Unknown
Launch date (UTC)
1965-06-24 (60 years ago)
Launch vehicle
Unknown
Launch site
Air Force Western Test Range (AFWTR)
Object type
Payload
Rocket body
Debris
Shape & HBR
Unknown shape, 0.1 m
Radar Cross Section
Small (<0.1 m²)

Expand to show TLE details & history
Last TLE update: 8 hours ago

TLE from 8 hours ago
0 THOR ABLESTAR DEB
1  1435U 65048D   25354.12378796  .00000626  00000-0  65760-3 0  9999
2  1435  89.8847 292.2583 0058410 131.5142 292.2262 13.73092995  2314
Epoch: 2025-12-20T02:58Z
TLE epoch observation values (Epoch: 2025-12-20T02:58:15.279Z)
Latitude
63.20518°
Longitude
158.96666°
Altitude
983.382 km
Speed
7.374 km/s
True Right ascension
19h 29m 56s
True Declination
63° 04' 15"
Sunlit
Object was in daylight at epoch
Visualization orbit readout
Latitude
Unknown
Longitude
Unknown
Altitude
Unknown
Speed
Unknown
Apparent Right ascension
Unknown
Apparent Declination
Unknown
Sunlit
N/A
Visualization observer readout
Local Sidereal Time
09:53:29
Azimuth
Unknown
Elevation
Unknown
Doppler factor
Unknown
Orbital elements
Apogee altitude
1,028.515 km
Perigee altitude
942.493 km
Semi-major axis
7,363.641 km
Eccentricity
0.00584
Inclination
89.8847°
RAAN
292.2583°
Arg. of periapsis
131.5142°
True anomaly
291.6049°
Mean anomaly
292.2262°
Eccentric anomaly
291.91572°
Mean motion
3.43482 °/min
Orbital period
104.81 mins
BSTAR
0.0006576
Loading maneuver chart data...
Computing Atmospheric mass density...

Documentation

Showing up to 5 results
|